Weather History for PAKW - September, 2013

Change the Weather History Date:

Monday, September 23, 2013

  Actual Average Record
Temperature  
Mean Temperature 49 °F -  
Max Temperature 53 °F 55 °F 64 °F (1997)
Min Temperature 46 °F 43 °F 34 °F (2003)
Degree Days  
Heating Degree Days 16    
Moisture  
Dew Point 45 °F    
Average Humidity 87    
Maximum Humidity 94    
Minimum Humidity 80    
Precipitation  
Precipitation 0.23 in - - ()
Sea Level Pressure  
Sea Level Pressure 29.46 in    
Wind  
Wind Speed 3 mph (South)    
Max Wind Speed 6 mph    
Max Gust Speed -    
Visibility 10 miles    
Events Rain    
Averages and records for this station are not official NWS values.
T = Trace of Precipitation, MM = Missing Value Source: NWS Daily Summary

Daily Weather History Graph

Daily Weather History Graph

Search for Another Location

Airport or City:

Trip Planner

Search our weather history database for the weather conditions in past years. The results will help you decide how hot, cold, wet, or windy it might be!

Date:

Astronomy

Sep. 23, 2013 Rise Set
Actual Time 6:40 AM AKDT 6:47 PM AKDT
Civil Twilight 6:03 AM AKDT 7:24 PM AKDT
Nautical Twilight 5:19 AM AKDT 8:07 PM AKDT
Astronomical Twilight 4:33 AM AKDT 8:53 PM AKDT
Moon 8:33 PM AKDT (9/23) 11:56 AM AKDT (9/23)
Length of Visible Light 13h 20m
Length of Day
12h 07m
Waning Gibbous, 80% of the Moon is Illuminated
Sep 23
Waning Gibbous
Sep 26
Last Quarter
Oct 4
New
Oct 11
First Quarter
Oct 18
Full

Hourly Weather History & Observations

Time (AKDT) Temp. Windchill Dew Point Humidity Pressure Visibility Wind Dir Wind Speed Gust Speed Precip Events Conditions
12:53 AM 48.9 °F - 44.1 °F 83% 29.22 in 10.0 mi Variable 3.5 mph - N/A   Partly Cloudy
2:53 AM 48.9 °F - 43.0 °F 80% 29.25 in 10.0 mi SE 3.5 mph - N/A   Clear
3:53 AM 46.9 °F - 43.0 °F 86% 29.28 in 10.0 mi Calm Calm - N/A   Clear
4:53 AM 48.0 °F - 43.0 °F 83% 29.29 in 10.0 mi Variable 3.5 mph - N/A   Scattered Clouds
5:53 AM 48.9 °F - 43.0 °F 80% 29.30 in 10.0 mi Calm Calm - N/A   Overcast
6:53 AM 48.9 °F - 44.1 °F 83% 29.32 in 10.0 mi Calm Calm - 0.00 in   Overcast
7:53 AM 48.9 °F - 45.0 °F 86% 29.35 in 10.0 mi Variable 3.5 mph - N/A   Overcast
8:22 AM 48.2 °F - 44.6 °F 87% 29.36 in 10.0 mi South 3.5 mph - N/A   Overcast
8:53 AM 48.9 °F - 46.0 °F 90% 29.37 in 10.0 mi Variable 3.5 mph - 0.00 in   Overcast
9:53 AM 48.9 °F - 46.0 °F 90% 29.39 in 10.0 mi SSW 3.5 mph - 0.01 in Rain Light Rain
10:53 AM 50.0 °F - 48.0 °F 93% 29.42 in 8.0 mi Variable 4.6 mph - 0.05 in Rain Light Rain
11:53 AM 50.0 °F - 46.9 °F 89% 29.44 in 7.0 mi Variable 5.8 mph - 0.03 in Rain Light Rain
12:53 PM 51.1 °F - 48.0 °F 89% 29.47 in 8.0 mi Variable 3.5 mph - 0.05 in Rain Light Rain
1:03 PM 50.0 °F - 48.2 °F 94% 29.48 in 7.0 mi Variable 3.5 mph - 0.02 in Rain Rain
1:39 PM 51.8 °F - 48.2 °F 88% 29.49 in 10.0 mi Variable 4.6 mph - 0.07 in Rain Light Rain
1:53 PM 51.1 °F - 48.0 °F 89% 29.50 in 10.0 mi SSW 3.5 mph - 0.07 in Rain Light Rain
2:53 PM 51.1 °F - 46.9 °F 86% 29.52 in 10.0 mi SSE 5.8 mph - 0.01 in   Overcast
3:53 PM 52.0 °F - 46.9 °F 83% 29.54 in 10.0 mi Variable 3.5 mph - 0.01 in   Scattered Clouds
4:53 PM 52.0 °F - 46.0 °F 80% 29.56 in 10.0 mi Calm Calm - N/A   Mostly Cloudy
5:53 PM 51.1 °F - 45.0 °F 80% 29.57 in 10.0 mi Calm Calm - N/A   Clear
6:53 PM 50.0 °F - 44.1 °F 80% 29.59 in 10.0 mi SE 5.8 mph - N/A   Overcast
7:53 PM 48.0 °F - 45.0 °F 89% 29.61 in 10.0 mi Calm Calm - N/A   Mostly Cloudy
8:53 PM 46.9 °F - 45.0 °F 93% 29.63 in 10.0 mi Calm Calm - N/A   Overcast
9:53 PM 46.9 °F - 45.0 °F 93% 29.65 in 10.0 mi Calm Calm - N/A   Clear
10:53 PM 46.0 °F 43.9 °F 44.1 °F 93% 29.67 in 10.0 mi Variable 4.6 mph - N/A   Overcast
11:53 PM 46.0 °F - 44.1 °F 93% 29.68 in 10.0 mi Calm Calm - 0.00 in   Overcast